Погода в Куйвози

Россия / Санкт-Петербург и Ленинградская область     60°18′56″N   30°26′49″E
темп.,
°C
ветер,
м/с
пор.,
м/с
влажн.,
%
обл.,
%
осадки,
мм/ч
давл.,
гПа
погр.,
м
4 марта, чт
чт400:000сз4118096 1.7 1000952
03:00−3сз4117865 1.7 1002582
06:00−4сз410870 0.0 1001442
09:00−5ссз378821 0.0 1002429
12:00−4ссз358099 0.0 1003622
15:00−3сз367899 0.1 1003828
18:00−3сз4778100 0.1 1004922
21:00−5сз398782 0.2 1004537
5 марта, пт
пт500:00−6сз388953 0.0 1005408
03:00−7сз379260 0.0 1006358
06:00−8сз269181 0.0 1007347
09:00−8ссз378785 0.1 1009465
12:00−6ссз2477100 0.0 1011641
15:00−4ссз2469100 0.1 1013816
18:00−5ссз368377 0.1 1014768
21:00−7сз278856 0.3 1016259
6 марта, сб
сб600:00−8сз269042 0.0 1017230
03:00−9зсз259221 0.0 1017163
06:00−9з25930 0.0 1016151
09:00−8зюз39862 0.0 1015393
12:00−4юз5106927 0.0 1012998
15:00−4юз7137964 0.1 1007957
18:00−3юз81992100 1.9 10011512
21:00−2зюз81794100 6.1 9951275
7 марта, вс
вс700:00−1зюз71495100 4.0 9921139
03:00−7сз3975100 4.7 992596
06:00−8з4108360 0.0 992954
09:00−9зюз4117357 0.0 9911000
12:00−6з477095 0.2 9891355
15:00−5сз247097 1.1 989980
18:00−7ссв4885100 0.6 991788
21:00−9с5118390 0.8 996706
8 марта, пн
пн800:00−10ссз5118886 0.0 999635
03:00−12ссз5108893 0.2 1002808
06:00−13ссз51189100 0.2 1004881
09:00−13с51188100 0.4 1007789
12:00−12с51084100 0.1 1010751
15:00−11с5981100 0.2 1013746
18:00−12с41085100 0.1 1015770
21:00−12с41092100 0.1 1018665